カタログに戻る

DELTA 1 DEB

運用中SSO
NORAD 48088·DEBRIS·🇺🇸 United States

打ち上げ Jul 29, 1976 から Vandenberg Space Force Base

Loading…

次のパス (今後24時間)

TLE

経年Source: Space-Track

元期: Sep 9, 2026, 19:32 UTC

1 48088U 76077GT  26252.81416877 -.00000020  00000-0  21091-3 0  9993
2 48088 102.0536 280.2655 0115437 195.4125 341.3015 12.19251201569813

AllMySatでDELTA 1 DEBをリアルタイム追跡

Download on the App Store